カタログに戻る

ATLAS 5 CENTAUR DEB

LostHEO
NORAD 46666·DEBRIS·🇺🇸 United States

打ち上げ Oct 17, 2018 から Cape Canaveral Space Force Station

Loading…

次のパス (今後24時間)

TLE

古いSource: Space-Track

元期: Apr 4, 2024, 09:03 UTC

1 46666U 18079CU  24095.37776378 -.00000042  00000-0  00000-0 0  9998
2 46666  11.0855 126.9675 4716990 122.1356 292.4330  1.55714926   667

AllMySatでATLAS 5 CENTAUR DEBをリアルタイム追跡

Download on the App Store